EA1HBP-10 Weather Reports


Display with metric or nautical units.
time (UTC)temp
F
wind
direction
speed
MPH
gust
MPH
rain 1hr
in
rain 24hr
in
rain mn
in
humidity
%
barometer
mb
20260508080903 51 321 0.0 2.0 0.02 0.11 0.04 98 1006.3
20260508080203 51 325 0.0 2.0 0.02 0.11 0.04 97 1006.2
20260508075503 51 258 0.0 2.0 0.02 0.11 0.04 96 1006.4
20260508074803 50 246 0.0 5.0 0.01 0.09 0.02 96 1006.4
20260508074103 51 250 2.0 5.0 0.01 0.09 0.02 94 1006.7
20260508072703 51 97 1.0 8.0 0.00 0.08 0.01 90 1006.7
20260508072003 51 56 2.0 8.0 0.00 0.08 0.01 89 1006.4
20260508071304 51 92 4.0 10.0 0.00 0.08 0.01 88 1006.4
20260508070603 51 89 2.0 11.0 0.00 0.08 0.01 87 1006.2
20260508065903 51 94 4.0 9.0 0.00 0.08 0.01 88 1006.3
20260508065203 51 137 2.0 5.0 0.00 0.08 0.01 88 1006.2
20260508064503 51 149 2.0 5.0 0.00 0.08 0.01 88 1006.0
20260508063803 51 34 2.0 6.0 0.00 0.08 0.01 88 1005.7
20260508063103 51 16 4.0 6.0 0.00 0.08 0.01 88 1005.7
20260508062403 51 18 4.0 8.0 0.00 0.08 0.01 89 1005.6
20260508061703 51 27 4.0 8.0 0.00 0.08 0.01 89 1005.5
20260508061003 51 83 3.0 8.0 0.00 0.08 0.01 90 1005.3
20260508055603 51 59 2.0 8.0 0.00 0.08 0.01 91 1005.1
20260508053504 51 75 3.0 8.0 0.00 0.08 0.01 99 1005.2
20260508052803 50 101 2.0 6.0 0.00 0.08 0.01 99 1005.2
20260508051403 49 110 2.0 7.0 0.00 0.08 0.01 99 1004.9
20260508050703 49 106 2.0 7.0 0.00 0.08 0.01 99 1005.0
20260508050003 49 107 2.0 5.0 0.00 0.08 0.01 99 1005.0
20260508045306 49 102 2.0 4.0 0.00 0.08 0.01 99 1005.1
20260508044603 49 93 2.0 4.0 0.00 0.08 0.01 99 1005.0
20260508043203 49 90 2.0 3.0 0.00 0.08 0.01 99 1005.1
20260508042504 49 101 1.0 4.0 0.00 0.08 0.01 99 1005.0
20260508041803 49 96 2.0 5.0 0.00 0.08 0.01 99 1004.9
20260508041103 49 74 2.0 5.0 0.00 0.08 0.01 99 1004.9
20260508035003 49 111 0.0 2.0 0.00 0.08 0.01 99 1005.1
20260508034303 50 119 0.0 3.0 0.00 0.08 0.01 99 1005.1
20260508033603 50 50 0.0 5.0 0.00 0.08 0.01 99 1005.2
20260508032903 50 47 1.0 4.0 0.00 0.08 0.01 99 1005.2
20260508032202 50 13 2.0 4.0 0.00 0.08 0.01 99 1005.2
20260508031504 50 13 2.0 4.0 0.00 0.08 0.01 99 1005.4
20260508030804 50 78 1.0 7.0 0.00 0.08 0.01 99 1005.5
20260508025403 50 79 2.0 5.0 0.00 0.08 0.01 99 1005.3
20260508024703 50 71 2.0 5.0 0.00 0.08 0.01 99 1005.4
20260508024003 50 98 1.0 3.0 0.00 0.08 0.01 99 1005.4
20260508023302 50 47 2.0 7.0 0.00 0.08 0.01 99 1005.6
20260508022602 50 56 3.0 9.0 0.00 0.08 0.01 99 1005.7
20260508021904 50 71 3.0 9.0 0.00 0.08 0.01 99 1005.8
20260508020503 49 50 2.0 4.0 0.01 0.08 0.01 99 1006.1
20260508015802 49 61 2.0 3.0 0.01 0.08 0.01 99 1006.2
20260508015102 49 85 1.0 2.0 0.01 0.08 0.01 99 1006.2
20260508014402 49 0 0.0 0.0 0.01 0.08 0.01 99 1006.2
20260508013702 49 0 0.0 0.0 0.01 0.08 0.01 99 1006.3
20260508013002 49 124 0.0 2.0 0.01 0.08 0.01 99 1006.4
20260508012307 49 127 1.0 3.0 0.01 0.08 0.01 99 1006.6
20260508011603 49 135 2.0 3.0 0.01 0.08 0.01 99 1006.6
20260508010902 49 103 1.0 3.0 0.00 0.07 0.00 99 1006.7
20260508010203 49 58 0.0 3.0 0.00 0.07 0.00 99 1006.6
20260508005502 49 347 1.0 4.0 0.00 0.07 0.00 99 1007.0
20260508004802 49 275 1.0 5.0 0.00 0.07 0.00 99 1007.4
20260508003403 49 245 2.0 4.0 0.00 0.07 0.00 99 1007.4
20260508002702 49 10 0.0 3.0 0.00 0.07 0.00 99 1007.4
20260508002002 49 316 1.0 3.0 0.00 0.07 0.00 99 1007.2
20260508001302 49 309 0.0 3.0 0.00 0.07 0.00 99 1007.3
20260508000602 49 194 0.0 2.0 0.00 0.07 0.00 99 1007.2
20260507235902 49 146 0.0 4.0 0.00 0.07 0.00 99 1007.1
20260507235202 49 131 2.0 4.0 0.00 0.07 0.00 99 1007.1
20260507234502 49 92 0.0 3.0 0.00 0.07 0.00 99 1007.1
20260507233802 49 101 1.0 4.0 0.00 0.07 0.00 99 1007.0
20260507233102 50 101 1.0 4.0 0.00 0.07 0.00 99 1007.2
20260507232402 50 66 0.0 4.0 0.00 0.07 0.00 99 1007.2
20260507231702 50 74 1.0 4.0 0.00 0.07 0.00 99 1007.3
20260507230302 50 122 1.0 3.0 0.00 0.07 0.00 99 1007.5
20260507225602 50 105 1.0 2.0 0.00 0.07 0.00 99 1007.5
20260507224902 51 63 0.0 2.0 0.00 0.07 0.00 99 1007.6
20260507224202 51 72 0.0 3.0 0.00 0.07 0.00 99 1007.6
20260507223502 51 100 0.0 3.0 0.00 0.07 0.00 99 1007.6
20260507222802 51 121 1.0 3.0 0.00 0.07 0.00 98 1007.9
20260507222102 51 97 1.0 3.0 0.00 0.07 0.00 97 1007.7
20260507220002 51 137 1.0 3.0 0.00 0.07 0.07 95 1008.0
20260507215306 51 151 0.0 2.0 0.00 0.07 0.07 94 1007.9
20260507214603 51 139 0.0 2.0 0.00 0.07 0.07 94 1007.9
20260507213902 51 168 0.0 2.0 0.00 0.07 0.07 93 1007.8
20260507213202 51 165 0.0 1.0 0.00 0.07 0.07 93 1007.9
20260507212503 51 94 0.0 1.0 0.00 0.07 0.07 92 1007.8
20260507211802 51 138 0.0 2.0 0.00 0.07 0.07 91 1007.8
20260507211102 52 142 0.0 2.0 0.00 0.07 0.07 91 1007.6
20260507210402 52 146 0.0 2.0 0.04 0.07 0.07 90 1007.7
20260507205702 52 173 1.0 2.0 0.05 0.07 0.07 90 1007.6
20260507205002 52 270 0.0 2.0 0.05 0.07 0.07 90 1007.4
20260507204302 52 277 0.0 3.0 0.05 0.07 0.07 90 1007.4
20260507203602 52 303 0.0 3.0 0.05 0.07 0.07 90 1007.3
20260507202902 52 259 1.0 4.0 0.05 0.07 0.07 88 1007.3
20260507202202 53 237 1.0 4.0 0.05 0.07 0.07 86 1007.2
20260507201502 53 244 0.0 7.0 0.05 0.07 0.07 84 1007.2
20260507200802 54 226 2.0 7.0 0.04 0.06 0.06 81 1006.9
20260507200103 54 211 2.0 4.0 0.01 0.04 0.04 75 1007.0
20260507195403 54 191 2.0 8.0 0.00 0.02 0.02 74 1006.7
20260507194702 55 207 4.0 8.0 0.00 0.02 0.02 73 1006.6
20260507194002 55 241 1.0 4.0 0.00 0.02 0.02 73 1006.3
20260507193302 55 211 2.0 6.0 0.00 0.02 0.02 73 1006.1
20260507192602 55 191 3.0 8.0 0.00 0.02 0.02 70 1006.1
20260507191902 56 191 4.0 7.0 0.00 0.02 0.02 67 1005.9
20260507191202 57 203 2.0 5.0 0.00 0.02 0.02 63 1006.0
20260507190502 59 234 1.0 4.0 0.00 0.02 0.02 55 1005.7
20260507185802 59 278 1.0 3.0 0.00 0.02 0.02 55 1005.8
20260507185102 60 32 2.0 3.0 0.00 0.02 0.02 53 1005.6
20260507184402 60 87 0.0 4.0 0.00 0.02 0.02 51 1005.3
20260507183703 60 69 1.0 3.0 0.00 0.02 0.02 51 1005.1
20260507182302 61 107 2.0 8.0 0.00 0.02 0.02 48 1005.1
20260507180902 61 95 5.0 8.0 0.00 0.02 0.02 47 1005.1
20260507180203 61 133 4.0 9.0 0.00 0.02 0.02 48 1005.0
20260507175502 62 135 3.0 8.0 0.00 0.02 0.02 45 1004.8
20260507174802 63 124 4.0 9.0 0.00 0.02 0.02 40 1004.7
20260507174102 63 114 4.0 10.0 0.00 0.02 0.02 39 1004.7
20260507173402 63 134 4.0 11.0 0.00 0.02 0.02 45 1004.5
20260507172702 62 145 7.0 11.0 0.00 0.02 0.02 48 1004.8
20260507171302 63 120 4.0 10.0 0.00 0.02 0.02 47 1004.7
20260507165902 64 118 5.0 11.0 0.00 0.02 0.02 43 1004.7
20260507163801 63 131 5.0 13.0 0.00 0.02 0.02 46 1004.9
20260507161702 63 137 8.0 11.0 0.00 0.02 0.02 46 1005.1
20260507161002 63 156 4.0 11.0 0.00 0.02 0.02 49 1005.1
20260507155603 64 50 2.0 6.0 0.00 0.02 0.02 50 1005.1
20260507154901 63 72 2.0 6.0 0.00 0.02 0.02 53 1005.3
20260507154203 62 49 2.0 7.0 0.00 0.02 0.02 57 1005.4
20260507153502 61 72 4.0 11.0 0.00 0.02 0.02 58 1005.5
20260507152801 61 67 4.0 11.0 0.01 0.02 0.02 59 1005.7
20260507152102 59 55 4.0 7.0 0.01 0.02 0.02 68 1005.8
20260507150701 56 33 2.0 10.0 0.01 0.02 0.02 67 1006.1
20260507150001 56 345 3.0 10.0 0.01 0.02 0.02 65 1006.0
20260507145301 56 342 4.0 7.0 0.01 0.02 0.02 65 1006.0
20260507143901 57 28 2.0 6.0 0.01 0.02 0.02 65 1006.2
20260507143202 57 353 2.0 8.0 0.01 0.02 0.02 60 1005.9
20260507142501 58 88 0.0 9.0 0.00 0.01 0.01 55 1006.0
20260507141801 59 57 3.0 15.0 0.00 0.01 0.01 53 1005.7
20260507141101 58 33 5.0 13.0 0.00 0.01 0.01 54 1005.7
20260507140403 60 59 5.0 13.0 0.00 0.01 0.01 50 1005.6
20260507135701 60 90 3.0 13.0 0.00 0.01 0.01 46 1005.5
20260507135003 62 96 7.0 14.0 0.00 0.01 0.01 42 1005.3
20260507134301 62 86 5.0 14.0 0.00 0.01 0.01 40 1005.3
20260507133601 62 57 2.0 6.0 0.00 0.01 0.01 50 1005.3
20260507132901 62 38 2.0 10.0 0.00 0.01 0.01 47 1005.2
20260507132201 63 43 4.0 9.0 0.00 0.01 0.01 45 1005.2
20260507131501 64 43 4.0 8.0 0.00 0.01 0.01 41 1005.1
20260507125401 60 65 4.0 6.0 0.00 0.01 0.01 55 1005.4
20260507124701 60 90 2.0 8.0 0.00 0.01 0.01 54 1005.6
20260507122601 63 47 4.0 11.0 0.01 0.01 0.01 38 1005.9
20260507121201 65 48 2.0 4.0 0.01 0.01 0.01 40 1005.9
20260507120501 62 14 2.0 3.0 0.01 0.01 0.01 48 1005.9
20260507115801 62 350 0.0 9.0 0.01 0.01 0.01 50 1005.9
20260507115101 62 13 4.0 9.0 0.01 0.01 0.01 46 1006.0
20260507113701 61 48 1.0 3.0 0.01 0.01 0.01 50 1006.3
20260507113001 60 45 0.0 6.0 0.00 0.00 0.00 47 1006.3
20260507112301 61 34 2.0 6.0 0.00 0.00 0.00 45 1006.3
20260507110201 63 67 2.0 9.0 0.00 0.00 0.00 38 1006.2
20260507105501 63 51 5.0 9.0 0.00 0.00 0.00 35 1006.2
20260507104801 63 78 4.0 8.0 0.00 0.00 0.00 36 1006.3
20260507103401 64 70 3.0 8.0 0.00 0.00 0.00 39 1006.5
20260507102701 65 77 3.0 12.0 0.00 0.00 0.00 35 1006.6
20260507102001 65 79 7.0 9.0 0.00 0.00 0.00 38 1006.6
20260507101301 65 54 3.0 9.0 0.00 0.00 0.00 41 1006.5
20260507100602 64 80 1.0 11.0 0.00 0.00 0.00 43 1006.6
20260507095201 62 48 4.0 11.0 0.00 0.00 0.00 46 1006.6
20260507093101 62 64 4.0 9.0 0.00 0.00 0.00 46 1007.1
20260507091702 60 86 5.0 10.0 0.00 0.00 0.00 49 1007.2
20260507091001 60 90 5.0 11.0 0.00 0.00 0.00 50 1007.4
20260507090302 60 90 4.0 11.0 0.00 0.00 0.00 51 1007.3
20260507085601 59 108 6.0 9.0 0.00 0.00 0.00 53 1007.3
20260507084901 58 104 4.0 9.0 0.00 0.00 0.00 57 1007.2
20260507084201 57 113 3.0 8.0 0.00 0.00 0.00 60 1007.2
20260507083501 56 117 3.0 7.0 0.00 0.00 0.00 64 1007.4
20260507082801 55 89 3.0 5.0 0.00 0.00 0.00 66 1007.3
20260507082101 54 101 2.0 5.0 0.00 0.00 0.00 66 1007.3